Time,TemperatureF,DewpointF,PressureIn,WindDirection,WindDirectionDegrees,WindSpeedMPH,WindSpeedGustMPH,Humidity,HourlyPrecipIn,Conditions,Clouds,dailyrainin,SoftwareType,DateUTC
2013-03-25 00:03:00,31.0,-99.9,-100.00,NW,321,8.0,-999.0,-999,0.00,,,-99.99,,2013-03-25 05:03:00,
2013-03-25 00:12:00,31.0,-99.9,-100.00,NW,321,8.0,-999.0,-999,0.00,,,-99.99,,2013-03-25 05:12:00,
2013-03-25 00:22:00,31.0,-99.9,-100.00,NW,321,8.0,-999.0,-999,0.00,,,-99.99,,2013-03-25 05:22:00,
2013-03-25 00:33:00,31.0,-99.9,-100.00,NW,317,10.0,-999.0,-999,0.00,,,0.02,,2013-03-25 05:33:00,
2013-03-25 00:43:00,31.0,-99.9,-100.00,NW,317,10.0,-999.0,-999,0.00,,,0.02,,2013-03-25 05:43:00,
2013-03-25 00:53:00,31.0,-99.9,-100.00,NW,317,10.0,-999.0,-999,0.00,,,0.02,,2013-03-25 05:53:00,
2013-03-25 01:02:00,31.0,-99.9,-100.00,NW,324,11.0,-999.0,-999,0.00,,,0.02,,2013-03-25 06:02:00,
2013-03-25 01:12:00,31.0,-99.9,-100.00,NW,324,11.0,-999.0,-999,0.00,,,0.02,,2013-03-25 06:12:00,
2013-03-25 01:22:00,31.0,-99.9,-100.00,NW,324,11.0,-999.0,-999,0.00,,,0.02,,2013-03-25 06:22:00,
2013-03-25 01:33:00,31.0,-99.9,-100.00,NW,319,6.0,-999.0,-999,0.00,,,0.02,,2013-03-25 06:33:00,
2013-03-25 01:43:00,31.0,-99.9,-100.00,NW,319,6.0,-999.0,-999,0.00,,,0.02,,2013-03-25 06:43:00,
2013-03-25 01:53:00,31.0,-99.9,-100.00,NW,319,6.0,-999.0,-999,0.00,,,0.02,,2013-03-25 06:53:00,
2013-03-25 02:02:00,31.0,-99.9,-100.00,NW,315,9.0,-999.0,-999,0.00,,,0.02,,2013-03-25 07:02:00,
2013-03-25 02:13:00,31.0,-99.9,-100.00,NW,315,9.0,-999.0,-999,0.00,,,0.02,,2013-03-25 07:13:00,
2013-03-25 02:22:00,31.0,-99.9,-100.00,NW,315,9.0,-999.0,-999,0.00,,,0.02,,2013-03-25 07:22:00,
2013-03-25 02:32:00,31.0,-99.9,-100.00,NW,319,9.0,-999.0,-999,0.00,,,0.01,,2013-03-25 07:32:00,
2013-03-25 02:42:00,31.0,-99.9,-100.00,NW,319,9.0,-999.0,-999,0.00,,,0.01,,2013-03-25 07:42:00,
2013-03-25 02:53:00,31.0,-99.9,-100.00,NW,319,9.0,-999.0,-999,0.00,,,0.01,,2013-03-25 07:53:00,
2013-03-25 03:00:00,30.0,-99.9,-100.00,NW,320,13.0,-999.0,-999,0.00,,,0.01,,2013-03-25 08:00:00,
2013-03-25 03:03:00,31.0,-99.9,-100.00,NW,323,12.0,-999.0,-999,0.00,,,0.01,,2013-03-25 08:03:00,
2013-03-25 03:12:00,31.0,-99.9,-100.00,NW,323,12.0,-999.0,-999,0.00,,,0.01,,2013-03-25 08:12:00,
2013-03-25 03:23:00,31.0,-99.9,-100.00,NW,323,12.0,-999.0,-999,0.00,,,0.01,,2013-03-25 08:23:00,
2013-03-25 03:32:00,30.0,-99.9,-100.00,NW,320,13.0,-999.0,-999,0.00,,,0.01,,2013-03-25 08:32:00,
2013-03-25 03:43:00,30.0,-99.9,-100.00,NW,320,13.0,-999.0,-999,0.00,,,0.01,,2013-03-25 08:43:00,
2013-03-25 03:53:00,30.0,-99.9,-100.00,NW,320,13.0,-999.0,-999,0.00,,,0.01,,2013-03-25 08:53:00,
2013-03-25 04:33:00,30.0,-99.9,-100.00,NW,316,8.0,-999.0,-999,0.00,,,0.01,,2013-03-25 09:33:00,
2013-03-25 04:43:00,30.0,-99.9,-100.00,NW,316,8.0,-999.0,-999,0.00,,,0.01,,2013-03-25 09:43:00,
2013-03-25 04:53:00,30.0,-99.9,-100.00,NW,316,8.0,-999.0,-999,0.00,,,0.01,,2013-03-25 09:53:00,
2013-03-25 05:03:00,30.0,-99.9,-100.00,NW,312,9.0,-999.0,-999,0.00,,,0.01,,2013-03-25 10:03:00,
2013-03-25 05:12:00,30.0,-99.9,-100.00,NW,312,9.0,-999.0,-999,0.00,,,0.01,,2013-03-25 10:12:00,
2013-03-25 05:23:00,30.0,-99.9,-100.00,NW,312,9.0,-999.0,-999,0.00,,,0.01,,2013-03-25 10:23:00,
2013-03-25 05:33:00,30.0,-99.9,-100.00,NW,310,8.0,-999.0,-999,0.00,,,0.01,,2013-03-25 10:33:00,
2013-03-25 05:43:00,30.0,-99.9,-100.00,NW,310,8.0,-999.0,-999,0.00,,,0.01,,2013-03-25 10:43:00,
2013-03-25 05:54:00,30.0,-99.9,-100.00,NW,310,8.0,-999.0,-999,0.00,,,0.01,,2013-03-25 10:54:00,
2013-03-25 06:00:00,30.0,-99.9,-100.00,NW,319,10.0,-999.0,-999,0.00,,,0.01,,2013-03-25 11:00:00,
2013-03-25 06:03:00,30.0,-99.9,-100.00,NW,319,10.0,-999.0,-999,0.00,,,0.01,,2013-03-25 11:03:00,
2013-03-25 06:12:00,30.0,-99.9,-100.00,NW,319,10.0,-999.0,-999,0.00,,,0.01,,2013-03-25 11:12:00,
2013-03-25 06:23:00,30.0,-99.9,-100.00,NW,319,10.0,-999.0,-999,0.00,,,0.01,,2013-03-25 11:23:00,
2013-03-25 06:33:00,30.0,-99.9,-100.00,NW,319,10.0,-999.0,-999,0.00,,,0.01,,2013-03-25 11:33:00,
2013-03-25 06:43:00,30.0,-99.9,-100.00,NW,319,10.0,-999.0,-999,0.00,,,0.01,,2013-03-25 11:43:00,
2013-03-25 06:53:00,30.0,-99.9,-100.00,NW,319,10.0,-999.0,-999,0.00,,,0.01,,2013-03-25 11:53:00,
2013-03-25 07:33:00,29.0,-99.9,-100.00,NW,313,7.0,-999.0,-999,0.00,,,0.01,,2013-03-25 12:33:00,
2013-03-25 07:43:00,29.0,-99.9,-100.00,NW,313,7.0,-999.0,-999,0.00,,,0.01,,2013-03-25 12:43:00,
2013-03-25 07:54:00,29.0,-99.9,-100.00,NW,313,7.0,-999.0,-999,0.00,,,0.01,,2013-03-25 12:54:00,
2013-03-25 08:03:00,29.0,-99.9,-100.00,NW,319,9.0,-999.0,-999,0.00,,,0.01,,2013-03-25 13:03:00,
2013-03-25 08:13:00,29.0,-99.9,-100.00,NW,319,9.0,-999.0,-999,0.00,,,0.01,,2013-03-25 13:13:00,
2013-03-25 08:23:00,29.0,-99.9,-100.00,NW,319,9.0,-999.0,-999,0.00,,,0.01,,2013-03-25 13:23:00,
2013-03-25 08:32:00,29.0,-99.9,-100.00,NW,317,9.0,-999.0,-999,0.00,,,0.01,,2013-03-25 13:32:00,
2013-03-25 08:43:00,29.0,-99.9,-100.00,NW,317,9.0,-999.0,-999,0.00,,,0.01,,2013-03-25 13:43:00,
2013-03-25 08:53:00,29.0,-99.9,-100.00,NW,317,9.0,-999.0,-999,0.00,,,0.01,,2013-03-25 13:53:00,
2013-03-25 09:03:00,29.0,-99.9,-100.00,NW,322,8.0,-999.0,-999,0.00,,,0.01,,2013-03-25 14:03:00,
2013-03-25 09:13:00,29.0,-99.9,-100.00,NW,322,8.0,-999.0,-999,0.00,,,0.01,,2013-03-25 14:13:00,
2013-03-25 09:23:00,29.0,-99.9,-100.00,NW,322,8.0,-999.0,-999,0.00,,,0.01,,2013-03-25 14:23:00,
2013-03-25 09:33:00,29.0,-99.9,-100.00,NW,322,7.0,-999.0,-999,0.00,,,0.01,,2013-03-25 14:33:00,
2013-03-25 09:43:00,29.0,-99.9,-100.00,NW,322,7.0,-999.0,-999,0.00,,,0.01,,2013-03-25 14:43:00,
2013-03-25 09:53:00,29.0,-99.9,-100.00,NW,322,7.0,-999.0,-999,0.00,,,0.01,,2013-03-25 14:53:00,
2013-03-25 10:03:00,30.0,-99.9,-100.00,NW,319,11.0,-999.0,-999,0.00,,,0.01,,2013-03-25 15:03:00,
2013-03-25 10:13:00,30.0,-99.9,-100.00,NW,319,11.0,-999.0,-999,0.00,,,0.01,,2013-03-25 15:13:00,
2013-03-25 10:23:00,30.0,-99.9,-100.00,NW,319,11.0,-999.0,-999,0.00,,,0.01,,2013-03-25 15:23:00,
2013-03-25 10:33:00,30.0,-99.9,-100.00,NW,321,9.0,-999.0,-999,0.00,,,0.01,,2013-03-25 15:33:00,
2013-03-25 10:43:00,30.0,-99.9,-100.00,NW,321,9.0,-999.0,-999,0.00,,,0.01,,2013-03-25 15:43:00,
2013-03-25 10:54:00,30.0,-99.9,-100.00,NW,321,9.0,-999.0,-999,0.00,,,0.01,,2013-03-25 15:54:00,
2013-03-25 11:00:00,32.0,-99.9,-100.00,NW,323,8.0,-999.0,-999,0.00,,,0.01,,2013-03-25 16:00:00,
2013-03-25 11:04:00,31.0,-99.9,-100.00,NW,320,11.0,-999.0,-999,0.00,,,0.01,,2013-03-25 16:04:00,
2013-03-25 11:13:00,31.0,-99.9,-100.00,NW,320,11.0,-999.0,-999,0.00,,,0.01,,2013-03-25 16:13:00,
2013-03-25 11:24:00,31.0,-99.9,-100.00,NW,320,11.0,-999.0,-999,0.00,,,0.01,,2013-03-25 16:24:00,
2013-03-25 11:34:00,32.0,-99.9,-100.00,NW,323,8.0,-999.0,-999,0.00,,,0.01,,2013-03-25 16:34:00,
2013-03-25 11:44:00,32.0,-99.9,-100.00,NW,323,8.0,-999.0,-999,0.00,,,0.01,,2013-03-25 16:44:00,
2013-03-25 11:53:00,32.0,-99.9,-100.00,NW,323,8.0,-999.0,-999,0.00,,,0.01,,2013-03-25 16:53:00,
2013-03-25 12:33:00,31.0,-99.9,-100.00,NW,324,11.0,-999.0,-999,0.01,,,0.02,,2013-03-25 17:33:00,
2013-03-25 12:43:00,31.0,-99.9,-100.00,NW,324,11.0,-999.0,-999,0.01,,,0.02,,2013-03-25 17:43:00,
2013-03-25 12:53:00,31.0,-99.9,-100.00,NW,324,11.0,-999.0,-999,0.01,,,0.02,,2013-03-25 17:53:00,
2013-03-25 13:04:00,31.0,-99.9,-100.00,NW,320,10.0,-999.0,-999,0.00,,,0.02,,2013-03-25 18:04:00,
2013-03-25 13:13:00,31.0,-99.9,-100.00,NW,320,10.0,-999.0,-999,0.00,,,0.02,,2013-03-25 18:13:00,
2013-03-25 13:23:00,31.0,-99.9,-100.00,NW,320,10.0,-999.0,-999,0.00,,,0.02,,2013-03-25 18:23:00,
2013-03-25 13:33:00,32.0,-99.9,-100.00,NW,324,16.0,-999.0,-999,0.02,,,0.04,,2013-03-25 18:33:00,
2013-03-25 13:43:00,32.0,-99.9,-100.00,NW,324,16.0,-999.0,-999,0.02,,,0.04,,2013-03-25 18:43:00,
2013-03-25 13:53:00,32.0,-99.9,-100.00,NW,324,16.0,-999.0,-999,0.02,,,0.04,,2013-03-25 18:53:00,
2013-03-25 14:03:00,32.0,-99.9,-100.00,NW,319,13.0,-999.0,-999,0.02,,,0.04,,2013-03-25 19:03:00,
2013-03-25 14:13:00,32.0,-99.9,-100.00,NW,319,13.0,-999.0,-999,0.02,,,0.04,,2013-03-25 19:13:00,
2013-03-25 14:23:00,32.0,-99.9,-100.00,NW,319,13.0,-999.0,-999,0.02,,,0.04,,2013-03-25 19:23:00,
2013-03-25 14:33:00,32.0,-99.9,-100.00,NNW,335,13.0,-999.0,-999,0.00,,,0.04,,2013-03-25 19:33:00,
2013-03-25 14:43:00,32.0,-99.9,-100.00,NNW,335,13.0,-999.0,-999,0.00,,,0.04,,2013-03-25 19:43:00,
2013-03-25 14:53:00,32.0,-99.9,-100.00,NNW,335,13.0,-999.0,-999,0.00,,,0.04,,2013-03-25 19:53:00,
2013-03-25 15:02:00,33.0,-99.9,-100.00,NW,312,14.0,-999.0,-999,0.00,,,0.04,,2013-03-25 20:02:00,
2013-03-25 15:12:00,33.0,-99.9,-100.00,NW,312,14.0,-999.0,-999,0.00,,,0.04,,2013-03-25 20:12:00,
2013-03-25 15:22:00,33.0,-99.9,-100.00,NW,312,14.0,-999.0,-999,0.00,,,0.04,,2013-03-25 20:22:00,
2013-03-25 15:32:00,33.0,-99.9,-100.00,NW,312,12.0,-999.0,-999,0.01,,,0.04,,2013-03-25 20:32:00,
2013-03-25 15:43:00,33.0,-99.9,-100.00,NW,312,12.0,-999.0,-999,0.01,,,0.04,,2013-03-25 20:43:00,
2013-03-25 15:52:00,33.0,-99.9,-100.00,NW,312,12.0,-999.0,-999,0.01,,,0.04,,2013-03-25 20:52:00,
2013-03-25 16:03:00,33.0,-99.9,-100.00,NNW,329,11.0,-999.0,-999,0.01,,,0.04,,2013-03-25 21:03:00,
2013-03-25 16:13:00,33.0,-99.9,-100.00,NNW,329,11.0,-999.0,-999,0.01,,,0.04,,2013-03-25 21:13:00,
2013-03-25 16:23:00,33.0,-99.9,-100.00,NNW,329,11.0,-999.0,-999,0.01,,,0.04,,2013-03-25 21:23:00,
2013-03-25 16:33:00,34.0,-99.9,-100.00,NW,316,12.0,-999.0,-999,0.00,,,0.04,,2013-03-25 21:33:00,
2013-03-25 16:43:00,34.0,-99.9,-100.00,NW,316,12.0,-999.0,-999,0.00,,,0.04,,2013-03-25 21:43:00,
2013-03-25 16:52:00,34.0,-99.9,-100.00,NW,316,12.0,-999.0,-999,0.00,,,0.04,,2013-03-25 21:52:00,
2013-03-25 17:04:00,34.0,-99.9,-100.00,NW,318,10.0,-999.0,-999,0.00,,,0.04,,2013-03-25 22:04:00,
2013-03-25 17:13:00,34.0,-99.9,-100.00,NW,318,10.0,-999.0,-999,0.00,,,0.04,,2013-03-25 22:13:00,
2013-03-25 17:24:00,34.0,-99.9,-100.00,NW,318,10.0,-999.0,-999,0.00,,,0.04,,2013-03-25 22:24:00,
2013-03-25 17:33:00,34.0,-99.9,-100.00,NW,323,11.0,-999.0,-999,0.00,,,0.04,,2013-03-25 22:33:00,
2013-03-25 17:43:00,34.0,-99.9,-100.00,NW,323,11.0,-999.0,-999,0.00,,,0.04,,2013-03-25 22:43:00,
2013-03-25 17:53:00,34.0,-99.9,-100.00,NW,323,11.0,-999.0,-999,0.00,,,0.04,,2013-03-25 22:53:00,
2013-03-25 18:03:00,34.0,-99.9,-100.00,NW,324,11.0,-999.0,-999,0.00,,,0.04,,2013-03-25 23:03:00,
2013-03-25 18:12:00,34.0,-99.9,-100.00,NW,324,11.0,-999.0,-999,0.00,,,0.04,,2013-03-25 23:12:00,
2013-03-25 18:23:00,34.0,-99.9,-100.00,NW,324,11.0,-999.0,-999,0.00,,,0.04,,2013-03-25 23:23:00,
2013-03-25 18:30:00,33.0,-99.9,-100.00,NW,325,10.0,-999.0,-999,0.00,,,0.04,,2013-03-25 23:30:00,
2013-03-25 18:33:00,33.0,-99.9,-100.00,NW,312,9.0,-999.0,-999,0.00,,,0.04,,2013-03-25 23:33:00,
2013-03-25 18:43:00,33.0,-99.9,-100.00,NW,312,9.0,-999.0,-999,0.00,,,0.04,,2013-03-25 23:43:00,
2013-03-25 18:53:00,33.0,-99.9,-100.00,NW,312,9.0,-999.0,-999,0.00,,,0.04,,2013-03-25 23:53:00,
2013-03-25 19:02:00,33.0,-99.9,-100.00,NW,325,10.0,-999.0,-999,0.00,,,0.04,,2013-03-26 00:02:00,
2013-03-25 19:12:00,33.0,-99.9,-100.00,NW,325,10.0,-999.0,-999,0.00,,,0.04,,2013-03-26 00:12:00,
2013-03-25 19:23:00,33.0,-99.9,-100.00,NW,325,10.0,-999.0,-999,0.00,,,0.04,,2013-03-26 00:23:00,
2013-03-25 20:02:00,33.0,-99.9,-100.00,NNW,336,5.0,-999.0,-999,0.00,,,0.04,,2013-03-26 01:02:00,
2013-03-25 20:12:00,33.0,-99.9,-100.00,NNW,336,5.0,-999.0,-999,0.00,,,0.04,,2013-03-26 01:12:00,
2013-03-25 20:23:00,33.0,-99.9,-100.00,NNW,336,5.0,-999.0,-999,0.00,,,0.04,,2013-03-26 01:23:00,
2013-03-25 20:33:00,32.0,-99.9,-100.00,NW,313,5.0,-999.0,-999,0.00,,,0.04,,2013-03-26 01:33:00,
2013-03-25 20:42:00,32.0,-99.9,-100.00,NW,313,5.0,-999.0,-999,0.00,,,0.04,,2013-03-26 01:42:00,
2013-03-25 20:53:00,32.0,-99.9,-100.00,NW,313,5.0,-999.0,-999,0.00,,,0.04,,2013-03-26 01:53:00,
2013-03-25 21:02:00,32.0,-99.9,-100.00,NW,312,4.0,-999.0,-999,0.00,,,0.04,,2013-03-26 02:02:00,
2013-03-25 21:12:00,32.0,-99.9,-100.00,NW,312,4.0,-999.0,-999,0.00,,,0.04,,2013-03-26 02:12:00,
2013-03-25 21:23:00,32.0,-99.9,-100.00,NW,312,4.0,-999.0,-999,0.00,,,0.04,,2013-03-26 02:23:00,
2013-03-25 21:32:00,32.0,-99.9,-100.00,NW,316,2.0,-999.0,-999,0.00,,,0.04,,2013-03-26 02:32:00,
2013-03-25 21:43:00,32.0,-99.9,-100.00,NW,316,2.0,-999.0,-999,0.00,,,0.04,,2013-03-26 02:43:00,
2013-03-25 21:53:00,32.0,-99.9,-100.00,NW,316,2.0,-999.0,-999,0.00,,,0.04,,2013-03-26 02:53:00,
2013-03-25 22:02:00,33.0,-99.9,-100.00,NNW,338,2.0,-999.0,-999,0.00,,,0.04,,2013-03-26 03:02:00,
2013-03-25 22:13:00,33.0,-99.9,-100.00,NNW,338,2.0,-999.0,-999,0.00,,,0.04,,2013-03-26 03:13:00,
2013-03-25 22:22:00,33.0,-99.9,-100.00,NNW,338,2.0,-999.0,-999,0.00,,,0.04,,2013-03-26 03:22:00,
2013-03-25 22:34:00,33.0,-99.9,-100.00,NW,313,4.0,-999.0,-999,0.00,,,0.04,,2013-03-26 03:34:00,
2013-03-25 22:43:00,33.0,-99.9,-100.00,NW,313,4.0,-999.0,-999,0.00,,,0.04,,2013-03-26 03:43:00,
2013-03-25 22:53:00,33.0,-99.9,-100.00,NW,313,4.0,-999.0,-999,0.00,,,0.04,,2013-03-26 03:53:00,
2013-03-25 23:04:00,33.0,-99.9,-100.00,NW,308,6.0,-999.0,-999,0.00,,,0.04,,2013-03-26 04:04:00,
2013-03-25 23:13:00,33.0,-99.9,-100.00,NW,308,6.0,-999.0,-999,0.00,,,0.04,,2013-03-26 04:13:00,
2013-03-25 23:23:00,33.0,-99.9,-100.00,NW,308,6.0,-999.0,-999,0.00,,,0.04,,2013-03-26 04:23:00,
2013-03-25 23:33:00,33.0,-99.9,-100.00,NW,316,6.0,-999.0,-999,0.00,,,0.04,,2013-03-26 04:33:00,
2013-03-25 23:43:00,33.0,-99.9,-100.00,NW,316,6.0,-999.0,-999,0.00,,,0.04,,2013-03-26 04:43:00,
2013-03-25 23:53:00,33.0,-99.9,-100.00,NW,316,6.0,-999.0,-999,0.00,,,0.04,,2013-03-26 04:53:00,